SCP
0 0 0 0 0 -0 -0 -0 -0 -0 -0 -0 -0 0 0 0 0 0 0 0 0 0 0 0 0 0 0 0 0 0 0 0 0 0 0 0 0 0 0 0 0 0 0 0 0 0 0 0 0
0 0 0 -0 -0 -0 -0 -0 -0 -0 -0 -0 -0 -0 0 0 0 0 0 0 0 0 0 0 0 0 0 0 0 0 0 0 0 0 0 0 0 0 0 0 0 0 0 0 0 0 0 0 0
0 0 -0 -0 -0 -0 -0 -0 -0 -0 -0 -0 -0 -0 -0 -0 0 0 0 0 0 0 0 0 0 0 0 0 0 0 0 0 0 0 0 0 0 0 0 0 0 0 0 0 0 0 0 0 0
0 0 -0 -0 -0 -0 -0 -0 -0 -0 -0 -0 -0 -0 -0 -0 -0 0 0 0 0 0 0 0 0 0 0 0 0 0 0 0 0 0 0 0 0 0 0 0 0 0 0 0 0 0 0 0 0
0 0 0 -0 0 -0 -0 -0 -0 -0 -0 -0 -0 -0 -0 -0 0 0 0 0 0 0 0 0 0 0 0 0 0 0 0 0 0 0 0 0 0 0 0 0 0 0 0 0 0 0 0 0 0
0 0 0 0 -0 -0 -0 -0 -0 -0 -0 -0 -0 -0 -0 -0 0 0 0 0 0 0 0 0 0 0 0 0 0 0 0 0 0 0 0 0 0 0 0 0 0 0 -0 -0 -0 -0 -0 0 0
0 0 0 0 -0 -0 -0 -0 -0 -0 -0 -0 -0 -0 -0 -0 0 0 0 0 0 0 0 0 0 0 0 0 0 0 0 0 0 0 0 0 0 0 0 0 0 -0 -0 -0 -0 -0 -0 -0 -0
0 0 0 0 -0 -0 -0 -0 0 0 0 0 0 -0 -0 0 0 0 0 0 0 0 0 0 0 0 0 0 0 0 0 0 0 0 0 0 0 0 0 0 0 -0 -0 -0 -0 -0 -0 -0 -0
0 0 0 0 0 -0 -0 -0 0 0 0 0 0 0 0 0 0 0 0 0 0 0 0 0 0 0 0 0 0 0 0 0 0 0 0 0 0 0 0 0 0 -0 -0 -0 -0 -0 -0 -0 -0
0 0 0 0 0 -0 0 0 0 0 0 0 0 0 0 0 0 0 0 0 0 0 0 0 0 1 1 1 1 1 1 1 1 1 1 1 0 0 0 0 0 0 0 -0 -0 -0 -0 0 0
0 0 0 0 0 0 0 0 0 0 0 0 0 0 0 0 0 0 0 0 0 0 0 0 0 1 1 1 1 1 1 1 1 1 1 1 1 1 1 1 0 0 0 0 0 0 0 0 0
0 0 0 0 0 0 0 0 0 0 0 0 0 0 0 0 0 0 0 0 0 0 0 0 0 1 1 1 1 1 1 1 1 1 1 1 1 1 1 1 1 1 1 1 1 1 1 1 1
0 0 0 0 0 0 0 0 0 0 0 1 1 1 0 0 0 -0 -0 0 0 0 0 0 0 1 1 1 1 1 1 1 1 1 1 1 1 1 1 1 1 1 1 1 1 1 1 1 1
0 0 0 0 0 0 0 0 0 0 1 1 1 1 1 0 0 0 0 0 0 0 0 0 0 1 1 1 1 1 1 1 1 1 1 1 1 1 1 1 1 1 1 1 1 1 1 1 1
0 0 0 0 0 0 0 0 0 1 1 1 1 1 1 0 0 0 0 1 1 1 1 1 1 1 1 1 1 1 1 1 1 1 1 1 1 1 1 1 1 1 1 1 1 1 1 1 1
0 0 0 0 0 0 0 0 1 1 2 2 2 1 1 1 1 1 1 1 1 1 1 1 1 1 1 1 1 1 1 1 1 1 1 1 1 1 1 1 1 1 1 1 1 1 1 1 1
0 0 0 0 0 0 0 0 1 2 2 2 2 2 1 1 1 1 1 1 2 2 2 1 1 1 1 1 1 1 1 1 1 1 1 1 1 1 1 1 1 1 1 1 1 1 1 1 1
0 0 0 0 0 0 0 1 1 2 2 2 2 2 2 2 2 2 2 2 2 2 2 1 1 1 1 1 1 1 1 1 1 1 1 1 1 1 1 1 1 1 1 1 1 1 1 1 1
0 0 0 0 0 0 0 0 1 1 1 2 2 2 2 2 2 2 1 1 1 1 1 1 1 1 1 0 0 0 0 0 0 0 0 0 0 1 1 1 1 1 1 1 1 1 1 1 1
0 0 0 0 0 0 0 0 0 0 1 1 1 2 2 2 2 1 1 1 0 0 0 0 0 0 0 0 0 0 0 0 0 0 0 0 0 0 0 0 1 1 1 1 1 1 1 1 1
0 0 0 0 0 0 0 0 0 0 0 1 1 2 2 2 1 1 0 -0 -0 -0 0 0 0 0 1 0 0 0 0 0 0 0 0 0 0 0 0 0 0 0 1 1 1 1 1 1 1
0 0 0 0 0 0 0 0 0 0 0 1 1 1 1 1 0 0 -0 -0 -0 -0 0 0 0 0 0 0 0 0 0 0 0 0 0 0 0 0 0 0 0 0 0 0 1 1 1 1 1
0 0 0 0 0 0 0 0 0 0 0 0 0 0 0 0 0 -0 -0 -0 -0 -0 0 0 0 0 0 0 0 0 0 0 0 0 0 0 0 0 0 0 0 0 0 0 0 1 1 1 1
0 0 0 0 0 0 0 0 0 0 0 0 0 -0 -0 -0 -0 -0 -0 -0 -0 0 0 0 0 0 0 0 0 0 0 0 0 0 0 0 0 0 0 0 0 0 0 0 0 0 1 1 1
0 0 0 0 0 0 0 0 0 0 0 0 -0 -0 -0 -0 -0 0 0 0 0 0 0 0 0 0 0 0 0 0 0 0 0 0 0 0 0 0 0 0 0 0 0 0 0 0 0 0 0
0 0 0 0 0 0 0 0 0 0 0 -0 -0 -0 -0 -0 0 0 0 0 0 0 0 0 0 0 0 0 0 0 0 0 0 0 0 0 0 0 0 0 0 0 0 0 0 0 0 0 0
0 0 0 0 0 0 0 0 0 0 0 -0 -0 -0 -0 0 0 0 -0 -0 -0 0 0 0 0 0 0 0 0 0 0 0 0 0 0 0 0 0 0 0 0 0 0 0 0 0 0 0 0
0 0 0 0 0 0 0 0 0 0 0 0 0 -0 -0 -0 0 -0 -0 0 0 0 0 0 0 0 0 0 0 0 0 0 0 0 0 0 0 0 0 0 0 0 0 0 0 0 0 0 0
0 0 0 0 0 0 0 0 0 0 0 0 0 0 0 0 0 0 0 0 0 0 0 0 0 0 0 0 0 0 0 0 0 0 0 0 0 0 0 0 0 0 0 0 0 0 0 0 0
0 0 0 0 0 0 0 0 0 0 0 0 0 0 0 0 0 0 0 0 0 0 0 0 0 0 0 0 0 0 0 0 0 0 0 0 0 0 0 0 0 0 0 0 0 0 0 0 0
Wind_Speed
4 4 3 2 3 4 3 2 1 2 2 2 3 5 6 4 3 2 2 9 14 13 12 15 17 17 17 16 15 15 15 14 14 13 12 12 11 10 10 9 8 7 7 7 7 6 6 6 6
3 4 2 2 4 3 3 3 2 1 3 3 4 4 5 2 3 5 5 7 13 12 10 11 17 17 16 16 16 16 15 15 14 13 12 11 10 9 9 8 7 6 6 6 6 6 6 5 5
3 3 3 4 3 2 2 2 1 1 2 2 4 4 4 2 4 7 6 11 11 10 9 12 19 17 17 16 16 15 15 14 13 12 11 10 9 8 8 7 6 6 5 5 5 5 5 5 5
3 3 4 5 1 3 4 3 1 1 0 3 4 5 4 2 6 7 12 14 13 10 9 12 19 17 16 16 15 14 13 13 12 11 10 9 8 8 7 7 6 6 6 5 5 5 5 5 6
3 4 6 4 3 5 4 4 2 2 1 2 3 4 3 5 7 11 14 15 14 11 9 10 19 17 16 15 14 13 13 11 10 10 9 8 7 7 7 7 7 7 7 7 7 7 7 7 7
4 5 5 2 5 6 4 1 2 1 2 2 4 4 2 2 6 11 12 11 10 11 9 9 18 17 16 14 13 13 12 11 10 9 9 8 7 7 7 8 8 8 8 8 8 9 9 9 9
4 4 3 0 4 5 4 3 2 2 2 3 4 5 1 3 4 8 9 8 8 9 7 6 8 11 14 14 13 12 11 11 10 10 9 8 8 8 8 9 9 10 10 10 11 11 11 10 10
4 5 2 0 1 4 5 4 1 5 3 3 4 6 6 6 9 8 9 8 8 8 7 5 5 5 6 7 12 12 11 11 10 10 9 9 9 9 10 9 10 11 12 12 13 13 12 11 10
4 5 1 3 3 4 4 4 3 3 6 3 2 3 5 15 15 11 10 7 8 9 7 6 6 5 5 5 8 10 11 11 10 9 11 10 5 5 6 8 11 12 13 14 14 14 14 12 11
4 3 5 4 3 3 4 3 2 3 3 2 3 5 14 17 15 14 12 11 12 12 11 8 7 6 6 7 5 4 4 5 5 4 5 4 3 4 7 8 13 14 15 15 16 16 15 11 6
3 4 4 4 3 3 3 3 1 6 4 7 8 12 17 16 13 12 12 11 11 11 11 10 9 7 6 5 4 3 3 3 5 6 6 4 4 4 5 4 7 8 10 8 10 10 7 7 6
2 5 4 6 3 2 2 2 1 4 6 5 10 18 19 17 15 14 13 11 8 9 11 10 10 9 7 5 4 3 3 3 4 5 6 4 4 4 5 5 6 5 5 6 7 6 8 9 9
2 4 4 6 7 5 3 2 3 4 1 8 14 15 16 15 13 10 9 8 8 9 10 9 9 10 8 6 5 5 5 5 6 5 5 6 6 6 7 6 6 7 6 7 7 7 8 8 9
3 4 7 7 5 3 3 2 2 4 5 11 13 12 12 12 11 8 8 8 9 9 9 8 9 9 7 7 6 5 5 5 5 5 7 8 7 7 7 7 7 7 7 7 8 8 7 7 7
3 5 7 4 3 3 1 3 3 3 8 11 10 8 8 7 8 9 10 10 10 8 7 7 8 6 7 7 6 5 4 4 5 6 7 8 8 9 8 7 8 7 7 8 7 8 7 7 7
3 4 5 7 6 5 2 6 4 2 9 9 7 6 5 3 3 4 6 7 7 6 6 7 7 7 8 7 7 5 5 5 5 5 6 8 9 9 8 8 8 8 7 6 7 7 6 7 7
5 3 3 8 6 3 2 3 4 3 7 7 6 5 5 3 3 3 5 7 7 7 6 6 7 8 9 9 7 6 4 5 4 4 4 5 6 7 6 6 7 6 6 6 7 6 6 7 7
2 2 2 5 6 5 4 2 3 4 6 5 4 4 4 5 4 4 5 6 7 7 7 7 7 8 6 4 3 2 3 4 3 3 4 5 4 5 5 5 6 6 5 6 6 7 7 6 6
1 1 2 4 3 4 4 3 1 1 4 5 6 6 5 5 3 3 5 6 7 7 7 8 7 6 4 2 2 2 3 3 3 3 4 4 4 5 5 5 5 5 5 7 7 6 7 6 4
2 1 1 3 4 3 2 2 2 1 3 6 7 6 6 4 3 4 5 6 7 8 8 7 6 5 4 2 2 2 1 1 2 3 4 5 5 5 5 5 5 6 6 7 7 6 4 4 4
1 3 2 2 4 5 2 4 4 3 4 3 3 5 6 7 7 7 7 7 6 7 8 6 5 4 4 3 1 1 1 2 2 2 3 4 5 6 6 7 7 7 6 7 7 7 8 6 5
1 3 2 1 2 3 2 3 6 3 4 2 2 5 7 7 7 7 7 7 8 8 5 3 3 3 3 3 3 3 2 2 3 2 4 6 6 7 7 7 7 7 7 8 8 7 7 7 6
3 2 2 1 2 1 3 0 8 3 3 4 4 6 8 9 9 9 10 9 7 4 3 2 2 2 2 3 4 3 3 3 3 3 5 6 6 7 8 8 7 8 7 8 8 8 8 7 7
3 5 5 5 5 2 1 1 6 4 5 5 5 8 9 9 9 9 8 5 5 3 2 3 4 3 3 4 5 5 5 4 4 4 5 5 5 6 7 8 7 7 7 8 8 8 9 8 8
5 7 6 7 6 4 3 2 9 7 6 6 8 9 8 6 6 6 7 6 6 5 5 5 5 5 5 5 5 5 5 4 4 5 5 6 5 5 8 8 7 7 7 7 7 7 8 8 8
2 8 7 3 4 6 4 4 8 4 4 3 3 3 5 5 5 6 7 6 6 6 5 5 6 6 6 6 5 4 4 3 3 4 4 5 5 6 8 8 8 8 7 6 6 5 6 6 7
3 2 5 6 2 2 6 6 8 9 11 10 9 10 10 9 9 9 8 7 6 5 4 3 4 4 5 6 5 5 5 5 5 5 4 4 5 5 7 8 7 7 7 6 5 4 5 5 6
2 7 5 5 3 3 5 3 5 12 14 12 13 13 12 12 13 13 12 12 10 8 8 6 4 4 4 4 5 4 5 6 5 4 5 5 5 5 7 7 7 7 7 6 5 4 5 5 4
3 4 5 4 4 5 4 3 4 5 6 8 10 10 10 12 12 12 12 11 11 11 10 9 8 6 5 5 5 6 6 6 5 5 5 5 4 5 6 7 7 7 7 6 4 4 3 3 3
0 3 5 2 3 4 3 3 4 5 6 7 8 9 9 9 9 9 10 12 13 13 11 10 8 8 7 6 6 7 7 6 6 7 6 5 4 4 5 5 6 7 7 6 4 3 1 1 2
Wind_Direction
181 148 131 111 73 46 27 347 318 335 20 26 87 98 113 124 173 203 97 134 136 149 159 164 162 159 158 155 151 148 147 145 143 140 137 136 136 137 138 139 141 142 139 135 133 131 129 130 132
156 145 135 93 78 56 329 321 344 310 154 135 84 82 79 72 66 112 129 140 143 149 154 160 163 162 162 161 159 157 155 153 151 148 146 144 145 147 149 151 153 156 154 152 152 152 151 152 153
181 161 113 82 79 157 260 303 294 336 165 137 88 72 91 141 141 154 154 143 141 147 151 164 166 167 168 168 167 165 163 160 158 156 156 157 159 161 164 166 171 176 178 178 179 178 178 181 186
135 67 55 67 32 239 238 266 254 224 279 55 95 81 68 32 154 154 142 145 146 152 154 169 169 172 173 174 173 171 169 167 165 165 167 172 177 181 184 187 193 200 206 210 212 214 213 215 218
67 75 55 37 315 276 249 237 197 209 168 61 95 98 63 4 103 130 143 151 154 156 157 173 172 175 177 179 180 178 176 175 176 177 181 188 196 202 206 208 212 217 222 228 234 236 239 240 242
49 60 68 12 316 302 294 269 139 144 122 116 108 99 48 68 120 141 147 149 153 157 157 171 175 178 180 183 186 185 183 183 186 190 196 204 213 222 228 230 232 235 238 242 247 250 252 254 255
93 85 114 260 308 315 318 327 154 145 157 179 135 110 60 142 138 136 132 127 136 152 153 167 174 180 184 188 192 194 193 193 196 200 206 214 223 232 241 245 248 252 254 256 259 261 264 264 261
114 98 98 219 268 293 307 321 253 158 164 123 122 146 196 179 139 122 112 112 135 154 155 158 163 171 179 190 200 203 204 205 208 213 219 226 234 240 247 249 252 260 264 266 267 268 270 270 267
86 77 175 215 204 274 306 326 331 123 119 126 140 170 170 135 135 129 123 126 153 169 169 166 165 167 171 182 204 207 212 215 218 223 230 233 235 245 258 260 258 261 266 269 271 271 271 269 268
91 138 229 219 203 248 294 290 296 109 119 130 78 73 123 136 146 150 155 163 174 183 186 184 181 176 174 191 197 199 204 210 213 213 228 234 229 234 247 253 259 262 265 268 268 267 266 265 256
153 203 250 266 243 241 272 293 301 139 190 203 176 150 146 150 158 164 171 176 185 186 190 194 194 187 185 192 188 196 199 204 211 213 216 224 236 244 251 250 260 262 266 267 267 267 258 248 243
213 250 248 278 294 290 249 277 281 197 224 199 157 152 155 164 173 177 179 185 180 184 198 197 197 196 197 198 199 202 208 215 221 222 218 218 231 241 243 246 248 248 251 252 252 251 249 248 245
244 271 276 269 290 263 242 227 240 256 245 117 130 149 163 174 180 184 184 182 180 192 200 199 197 203 202 203 211 214 220 226 231 231 225 219 227 239 242 245 245 245 245 249 252 251 252 251 248
261 275 284 283 276 259 214 223 199 251 137 129 144 160 170 178 178 175 181 188 192 199 201 197 199 203 202 210 218 225 227 232 236 238 237 229 230 236 240 243 243 242 241 243 245 247 250 254 251
298 313 323 322 323 286 220 286 230 214 143 140 151 157 163 175 176 184 190 194 198 200 198 198 199 194 202 217 226 232 235 234 237 242 244 242 238 240 241 244 247 245 242 243 246 248 245 249 248
27 26 344 314 330 316 175 252 284 163 142 140 143 146 151 156 167 179 180 183 186 186 191 200 201 191 201 211 218 223 226 229 237 241 245 247 245 243 245 247 250 248 243 243 245 246 242 241 240
24 26 327 311 327 341 134 254 322 109 128 131 134 138 134 114 92 115 150 164 167 171 172 178 192 197 204 209 213 218 224 232 238 241 245 251 252 249 243 249 256 255 251 248 249 245 235 240 238
301 331 316 306 324 27 57 19 31 74 103 121 133 138 136 130 129 131 133 141 143 149 158 173 190 200 198 195 203 227 246 249 250 251 256 265 265 267 260 260 264 262 258 257 249 250 241 239 240
237 230 268 281 327 47 59 59 44 100 137 168 182 175 159 146 145 148 146 145 146 160 173 185 192 196 169 154 179 209 240 250 261 263 266 277 281 282 276 272 272 265 258 257 255 251 250 247 232
194 163 279 298 349 44 52 7 309 261 225 214 199 183 163 157 170 187 179 180 183 188 193 195 198 190 184 176 178 190 216 254 270 287 295 287 286 286 287 274 271 268 264 262 256 245 244 243 209
124 161 207 276 345 18 38 343 320 316 330 314 203 175 172 183 192 204 205 208 209 210 207 201 199 194 196 193 145 80 19 338 316 305 300 295 295 289 281 276 271 269 262 260 255 243 240 246 232
226 237 228 230 43 317 22 289 291 315 324 307 229 182 188 201 208 214 217 220 224 227 220 208 198 192 192 176 179 190 214 256 261 273 282 295 294 293 289 282 276 271 264 259 256 247 236 238 242
211 67 61 61 137 37 21 155 288 332 301 265 228 209 208 213 215 218 220 224 231 234 222 206 189 190 178 174 180 184 209 230 262 281 291 296 299 297 295 292 285 278 270 262 256 252 241 234 236
93 66 48 47 65 64 306 221 284 265 241 251 236 224 220 221 226 233 238 242 252 243 217 198 190 195 180 181 180 184 204 231 271 293 300 303 304 300 299 301 294 287 278 269 262 254 247 240 238
72 73 22 2 10 269 283 232 253 254 244 231 231 233 235 241 248 259 267 267 261 247 227 208 195 201 194 191 191 195 205 219 245 271 288 300 305 305 306 308 302 295 284 275 267 257 250 241 237
176 134 153 204 233 279 319 242 255 281 305 291 288 326 358 346 334 322 315 305 289 269 244 220 207 209 203 203 206 205 209 217 237 252 265 279 287 293 299 304 302 298 293 283 270 261 253 242 235
143 153 160 137 173 271 287 288 309 356 2 12 23 30 21 10 5 357 351 347 338 328 307 264 235 234 224 218 213 217 221 226 240 253 259 270 281 295 307 310 308 306 302 293 278 261 254 243 232
115 137 96 116 158 250 285 297 322 338 346 13 31 34 29 26 24 20 16 12 8 6 1 357 334 289 269 248 235 234 232 233 238 249 262 272 287 300 316 321 318 313 309 304 290 272 258 241 227
30 72 89 106 155 171 248 277 15 349 6 36 37 31 25 24 23 21 18 15 16 16 14 7 355 335 313 285 263 252 247 242 241 245 254 264 279 298 313 318 319 318 318 316 307 285 263 235 215
246 132 136 121 260 190 204 248 37 38 34 38 31 24 20 17 14 12 10 11 14 12 7 2 353 340 320 298 275 258 252 244 242 245 250 254 271 289 303 314 319 322 327 330 330 333 357 117 116